Вернуться в каталог

ONEWEB-0644

АктивенСвязьPO
NORAD 55808·PAYLOAD·🇬🇧 United Kingdom

Запущен Mar 9, 2023 с Cape Canaveral Space Force Station

Loading…

Ближайшие Пролёты (ближайшие 24 часа)

TLE

СвежийSource: CelesTrak SupGP

Эпоха: Sep 14, 2026, 08:28 UTC

1 55808C 23029N   26257.35331435 -.00000138  00000+0 -34594-3 0  2579
2 55808  87.9100 287.2133 0001807  84.8441  26.5061 13.19721712    19

Отслеживайте ONEWEB-0644 в реальном времени с AllMySat

Download on the App Store